Home > Weather > Peoria > Past weeks

Flag for USA Past Weather in Peoria, Illinois, USA — Yesterday and Last 2 Weeks

Now
73 °F

Clear.


Feels Like: 69 °F
Forecast: 71 / 82 °F
Wind: 5 mph from Northeast

Location: Greater Peoria Regional Airport

Current Time: Jul 28, 2016 at 5:35:11 AM

Latest Report: Jul 28, 2016 at 4:54 AM


Visibility: 10 mi

Pressure: 29.86 "Hg

Humidity: 97%

Dew Point: 72 °F

Location of PeoriaLocation

Past Weather in Peoria — Graph

°F

Peoria Temperature Yesterday

Maximum temperature yesterday: 87 °F (at 2:54 PM)
Minimum temperature yesterday: 69 °F (at 4:54 AM)
Average temperature yesterday: 79 °F

High & Low Weather Summary for the Past Weeks

 TemperatureHumidityPressure
High93 °F (Jul 21, 4:54 PM)100% (Jul 20, 4:54 AM)30.22 "Hg (Jul 20, 4:54 AM)
Low63 °F (Jul 16, 5:54 AM)50% (Jul 14, 1:54 PM)29.79 "Hg (Jul 13, 2:54 PM)
Average78 °F80%30.01 "Hg
* Reported Jul 13 3:54 AM — Jul 28 3:54 AM, Peoria, Weather by CustomWeather, © 2016

Note: Actual official high and low records may vary slightly from our data, if they occured in-between our weather recording intervals... More about our weather records

Advertising

Peoria Weather History for the Previous 24 Hours

Scroll right to see more
 ConditionsComfort  
Time TempWeatherWind HumidityBarometerVisibility
3:54 AM
Thu, Jul 28
74 °FClear.No wind94%29.87 "Hg10 mi
2:54 AM75 °FClear.No wind90%29.87 "Hg10 mi
1:54 AM74 °FClear.No wind91%29.89 "Hg10 mi
12:54 AM75 °FClear.No wind88%29.90 "Hg10 mi
11:54 PM
Wed, Jul 27
76 °FClear.7 mph82%29.92 "Hg10 mi
10:54 PM79 °FClear.7 mph82%29.92 "Hg10 mi
9:54 PM81 °FClear.6 mph77%29.92 "Hg10 mi
8:54 PM81 °FPassing clouds.5 mph74%29.91 "Hg10 mi
7:54 PM83 °FSunny.3 mph70%29.89 "Hg10 mi
6:54 PM84 °FPassing clouds.7 mph65%29.88 "Hg10 mi
5:54 PM85 °FScattered clouds.5 mph63%29.90 "Hg10 mi
4:54 PM85 °FPartly sunny.5 mph61%29.92 "Hg10 mi
3:54 PM86 °FPassing clouds.6 mph59%29.93 "Hg10 mi
2:54 PM87 °FScattered clouds.7 mph59%29.94 "Hg10 mi
1:54 PM86 °FPassing clouds.3 mph57%29.96 "Hg10 mi
12:54 PM83 °FPassing clouds.3 mph61%29.98 "Hg10 mi
11:54 AM84 °FPassing clouds.N/A61%30.01 "Hg10 mi
10:54 AM82 °FSunny.6 mph65%30.01 "Hg10 mi
9:54 AM80 °FSunny.7 mph69%29.99 "Hg10 mi
8:54 AM79 °FSunny.6 mph72%30.00 "Hg10 mi
7:54 AM76 °FSunny.3 mph77%30.00 "Hg10 mi
6:54 AM72 °FSunny.No wind93%30.01 "Hg10 mi
5:54 AM69 °FClear.No wind96%30.01 "Hg9 mi
Weather by CustomWeather, © 2016

See weather overviewHow to use our weather pages